カタログに戻る

FENGYUN 1C DEB

運用中PO
NORAD 31205·DEBRIS·🇨🇳 China

打ち上げ May 10, 1999 から Taiyuan Satellite Launch Center

Loading…

次のパス (今後24時間)

TLE

経年Source: Space-Track

元期: Sep 10, 2026, 13:13 UTC

1 31205U 99025BKK 26253.55128381  .00000155  00000-0  77308-4 0  9997
2 31205  99.2371   5.2756 0162401 141.2675 220.0279 14.24116096 10804

AllMySatでFENGYUN 1C DEBをリアルタイム追跡

Download on the App Store